Weather History for Ellington Field, TX

Change the Weather History Date:

Friday, October 5, 2012

  Actual Average Record
Temperature  
Mean Temperature 81 °F -  
Max Temperature 93 °F 80 °F 93 °F (2006)
Min Temperature 69 °F 64 °F 53 °F (2010)
Cooling Degree Days 16    
Growing Degree Days 31 (Base 50)    
Moisture  
Dew Point 68 °F    
Average Humidity 71    
Maximum Humidity 88    
Minimum Humidity 43    
Precipitation  
Precipitation 0.00 in - - ()
Sea Level Pressure  
Sea Level Pressure 30.07 in    
Wind  
Wind Speed 2 mph (SSE)    
Max Wind Speed 9 mph    
Max Gust Speed -    
Visibility 10 miles    
Events      
Averages and records for this station are not official NWS values.
T = Trace of Precipitation, MM = Missing Value Source: NWS Daily Summary

Daily Weather History Graph

Daily Weather History Graph

Search for Another Location

Airport:

Trip Planner

Search our weather history database for the weather conditions in past years. The results will help you decide how hot, cold, wet, or windy it might be!

Date:

Astronomy

Oct. 05, 2012 Rise Set
Actual Time 7:16 AM CDT 7:00 PM CDT
Civil Twilight 6:52 AM CDT 7:24 PM CDT
Nautical Twilight 6:25 AM CDT 7:52 PM CDT
Astronomical Twilight 5:57 AM CDT 8:19 PM CDT
Moon 10:45 PM CDT (10/5) 12:04 PM CDT (10/5)
Length of Visible Light 12h 31m
Length of Day
11h 44m
Waning Gibbous, 74% of the Moon is Illuminated
Oct 5
Waning Gibbous
Oct 8
Last Quarter
Oct 15
New
Oct 21
First Quarter
Oct 29
Full

Hourly Weather History & Observations

Time (CDT) Temp. Heat Index Dew Point Humidity Pressure Visibility Wind Dir Wind Speed Gust Speed Precip Events Conditions
12:50 AM 73.4 °F - 68.0 °F 83% 30.12 in 10.0 mi Calm Calm - N/A   Clear
1:50 AM 71.6 °F - 68.0 °F 88% 30.11 in 10.0 mi Calm Calm - N/A   Clear
2:50 AM 71.6 °F - 68.0 °F 88% 30.10 in 10.0 mi Calm Calm - N/A   Clear
3:50 AM 71.6 °F - 68.0 °F 88% 30.10 in 10.0 mi Calm Calm - N/A   Clear
4:50 AM 71.6 °F - 68.0 °F 88% 30.10 in 10.0 mi Calm Calm - N/A   Clear
5:50 AM 69.8 °F - 66.2 °F 88% 30.10 in 10.0 mi Calm Calm - N/A   Clear
6:50 AM 69.8 °F - 66.2 °F 88% 30.11 in 10.0 mi Calm Calm - N/A   Clear
7:50 AM 69.8 °F - 66.2 °F 88% 30.12 in 10.0 mi Calm Calm - N/A   Clear
8:50 AM 73.4 °F - 69.8 °F 88% 30.13 in 10.0 mi Calm Calm - N/A   Clear
9:50 AM 78.8 °F - 71.6 °F 78% 30.14 in 10.0 mi SSE 8.1 mph - N/A   Partly Cloudy
10:50 AM 82.4 °F 86.3 °F 69.8 °F 66% 30.13 in 10.0 mi South 6.9 mph - N/A   Mostly Cloudy
11:50 AM 86.0 °F 91.8 °F 71.6 °F 62% 30.12 in 10.0 mi SSE 6.9 mph - N/A   Mostly Cloudy
12:50 PM 86.0 °F 89.4 °F 68.0 °F 55% 30.10 in 10.0 mi South 4.6 mph - N/A   Scattered Clouds
1:50 PM 89.6 °F 93.4 °F 68.0 °F 49% 30.07 in 10.0 mi ESE 4.6 mph - N/A   Mostly Cloudy
2:50 PM 93.2 °F 98.8 °F 69.8 °F 46% 30.05 in 10.0 mi SSW 9.2 mph - N/A   Mostly Cloudy
3:50 PM 91.4 °F 96.8 °F 69.8 °F 49% 30.02 in 10.0 mi South 5.8 mph - N/A   Mostly Cloudy
4:50 PM 91.4 °F 95.4 °F 68.0 °F 46% 30.00 in 10.0 mi SSE 4.6 mph - N/A   Scattered Clouds
5:50 PM 91.4 °F 94.0 °F 66.2 °F 43% 30.00 in 10.0 mi South 9.2 mph - N/A   Partly Cloudy
6:50 PM 86.0 °F 88.2 °F 66.2 °F 51% 30.00 in 10.0 mi SSE 5.8 mph - N/A   Clear
7:50 PM 78.8 °F - 64.4 °F 61% 30.00 in 10.0 mi Calm Calm - N/A   Clear
8:50 PM 77.0 °F - 66.2 °F 69% 30.01 in 10.0 mi SSE 3.5 mph - N/A   Clear
9:50 PM 75.2 °F - 66.2 °F 73% 30.02 in 10.0 mi South 4.6 mph - N/A   Clear
10:50 PM 73.4 °F - 66.2 °F 78% 30.02 in 10.0 mi South 4.6 mph - N/A   Clear
11:50 PM 71.6 °F - 66.2 °F 83% 30.01 in 10.0 mi South 3.5 mph - N/A   Clear